Year,Month,Day,Hour,Minute,Value (Times are PST for temperature in C)
2009,05,29,00,00,13.70
2009,05,29,00,01,13.70
2009,05,29,00,02,13.70
2009,05,29,00,03,13.70
2009,05,29,00,04,13.70
2009,05,29,00,05,13.60
2009,05,29,00,06,13.60
2009,05,29,00,07,13.60
2009,05,29,00,08,13.60
2009,05,29,00,09,13.50
2009,05,29,00,10,13.50
2009,05,29,00,11,13.50
2009,05,29,00,12,13.50
2009,05,29,00,13,13.50
2009,05,29,00,14,13.50
2009,05,29,00,15,13.50
2009,05,29,00,16,13.40
2009,05,29,00,17,13.40
2009,05,29,00,18,13.40
2009,05,29,00,19,13.40
2009,05,29,00,20,13.40
2009,05,29,00,21,13.40
2009,05,29,00,22,13.40
2009,05,29,00,23,13.40
2009,05,29,00,24,13.40
2009,05,29,00,25,13.30
2009,05,29,00,26,13.30
2009,05,29,00,27,13.30
2009,05,29,00,28,13.40
2009,05,29,00,29,13.40
2009,05,29,00,30,13.40
2009,05,29,00,31,13.40
2009,05,29,00,32,13.40
2009,05,29,00,33,13.30
2009,05,29,00,34,13.30
2009,05,29,00,35,13.30
2009,05,29,00,36,13.30
2009,05,29,00,37,13.30
2009,05,29,00,38,13.30
2009,05,29,00,39,13.20
2009,05,29,00,40,13.20
2009,05,29,00,41,13.10
2009,05,29,00,42,13.10
2009,05,29,00,43,13.00
2009,05,29,00,44,13.00
2009,05,29,00,45,13.00
2009,05,29,00,46,13.00
2009,05,29,00,47,12.90
2009,05,29,00,48,13.00
2009,05,29,00,49,13.00
2009,05,29,00,50,13.10
2009,05,29,00,51,13.20
2009,05,29,00,52,13.30
2009,05,29,00,53,13.30
2009,05,29,00,54,13.30
2009,05,29,00,55,13.30
2009,05,29,00,56,13.30
2009,05,29,00,57,13.20
2009,05,29,00,58,13.20
2009,05,29,00,59,13.20
2009,05,29,01,00,13.10
2009,05,29,01,01,13.10
2009,05,29,01,02,13.20
2009,05,29,01,03,13.20
2009,05,29,01,04,13.20
2009,05,29,01,05,13.30
2009,05,29,01,06,13.30
2009,05,29,01,07,13.40
2009,05,29,01,08,13.50
2009,05,29,01,09,13.50
2009,05,29,01,10,13.50
2009,05,29,01,11,13.50
2009,05,29,01,12,13.50
2009,05,29,01,13,13.50
2009,05,29,01,14,13.50
2009,05,29,01,15,13.50
2009,05,29,01,16,13.40
2009,05,29,01,17,13.40
2009,05,29,01,18,13.40
2009,05,29,01,19,13.30
2009,05,29,01,20,13.30
2009,05,29,01,21,13.30
2009,05,29,01,22,13.20
2009,05,29,01,23,13.20
2009,05,29,01,24,13.10
2009,05,29,01,25,13.10
2009,05,29,01,26,13.10
2009,05,29,01,27,13.00
2009,05,29,01,28,13.00
2009,05,29,01,29,12.90
2009,05,29,01,30,12.90
2009,05,29,01,31,12.90
2009,05,29,01,32,12.80
2009,05,29,01,33,12.80
2009,05,29,01,34,12.80
2009,05,29,01,35,12.80
2009,05,29,01,36,12.80
2009,05,29,01,37,12.80
2009,05,29,01,38,12.70
2009,05,29,01,39,12.70
2009,05,29,01,40,12.70
2009,05,29,01,41,12.60
2009,05,29,01,42,12.60
2009,05,29,01,43,12.60
2009,05,29,01,44,12.50
2009,05,29,01,45,12.50
2009,05,29,01,46,12.50
2009,05,29,01,47,12.40
2009,05,29,01,48,12.40
2009,05,29,01,49,12.40
2009,05,29,01,50,12.40
2009,05,29,01,51,12.40
2009,05,29,01,52,12.40
2009,05,29,01,53,12.40
2009,05,29,01,54,12.40
2009,05,29,01,55,12.40
2009,05,29,01,56,12.40
2009,05,29,01,57,12.40
2009,05,29,01,58,12.40
2009,05,29,01,59,12.40
2009,05,29,02,00,12.30
2009,05,29,02,01,12.30
2009,05,29,02,02,12.30
2009,05,29,02,03,12.30
2009,05,29,02,04,12.30
2009,05,29,02,05,12.30
2009,05,29,02,06,12.30
2009,05,29,02,07,12.30
2009,05,29,02,08,12.30
2009,05,29,02,09,12.30
2009,05,29,02,10,12.30
2009,05,29,02,11,12.30
2009,05,29,02,12,12.30
2009,05,29,02,13,12.20
2009,05,29,02,14,12.20
2009,05,29,02,15,12.20
2009,05,29,02,16,12.20
2009,05,29,02,17,12.10
2009,05,29,02,18,12.10
2009,05,29,02,19,12.10
2009,05,29,02,20,12.10
2009,05,29,02,21,12.00
2009,05,29,02,22,12.00
2009,05,29,02,23,12.00
2009,05,29,02,24,12.00
2009,05,29,02,25,12.00
2009,05,29,02,26,12.00
2009,05,29,02,27,12.00
2009,05,29,02,28,12.00
2009,05,29,02,29,11.90
2009,05,29,02,30,11.90
2009,05,29,02,31,11.90
2009,05,29,02,32,11.90
2009,05,29,02,33,11.90
2009,05,29,02,34,11.90
2009,05,29,02,35,11.90
2009,05,29,02,36,11.80
2009,05,29,02,37,11.80
2009,05,29,02,38,11.80
2009,05,29,02,39,11.80
2009,05,29,02,40,11.80
2009,05,29,02,41,11.80
2009,05,29,02,42,11.80
2009,05,29,02,43,11.80
2009,05,29,02,44,11.80
2009,05,29,02,45,11.80
2009,05,29,02,46,11.80
2009,05,29,02,47,11.80
2009,05,29,02,48,11.80
2009,05,29,02,49,11.70
2009,05,29,02,50,11.70
2009,05,29,02,51,11.70
2009,05,29,02,52,11.70
2009,05,29,02,53,11.70
2009,05,29,02,54,11.70
2009,05,29,02,55,11.70
2009,05,29,02,56,11.70
2009,05,29,02,57,11.70
2009,05,29,02,58,11.70
2009,05,29,02,59,11.60
2009,05,29,03,00,11.60
2009,05,29,03,01,11.60
2009,05,29,03,02,11.60
2009,05,29,03,03,11.60
2009,05,29,03,04,11.60
2009,05,29,03,05,11.60
2009,05,29,03,06,11.60
2009,05,29,03,07,11.60
2009,05,29,03,08,11.60
2009,05,29,03,09,11.70
2009,05,29,03,10,11.70
2009,05,29,03,11,11.70
2009,05,29,03,12,11.70
2009,05,29,03,13,11.70
2009,05,29,03,14,11.70
2009,05,29,03,15,11.70
2009,05,29,03,16,11.70
2009,05,29,03,17,11.70
2009,05,29,03,18,11.70
2009,05,29,03,19,11.70
2009,05,29,03,20,11.70
2009,05,29,03,21,11.60
2009,05,29,03,22,11.60
2009,05,29,03,23,11.60
2009,05,29,03,24,11.60
2009,05,29,03,25,11.60
2009,05,29,03,26,11.60
2009,05,29,03,27,11.60
2009,05,29,03,28,11.60
2009,05,29,03,29,11.60
2009,05,29,03,30,11.60
2009,05,29,03,31,11.60
2009,05,29,03,32,11.60
2009,05,29,03,33,11.60
2009,05,29,03,34,11.60
2009,05,29,03,35,11.70
2009,05,29,03,36,11.70
2009,05,29,03,37,11.70
2009,05,29,03,38,11.70
2009,05,29,03,39,11.70
2009,05,29,03,40,11.70
2009,05,29,03,41,11.60
2009,05,29,03,42,11.60
2009,05,29,03,43,11.60
2009,05,29,03,44,11.60
2009,05,29,03,45,11.60
2009,05,29,03,46,11.50
2009,05,29,03,47,11.40
2009,05,29,03,48,11.40
2009,05,29,03,49,11.40
2009,05,29,03,50,11.40
2009,05,29,03,51,11.40
2009,05,29,03,52,11.30
2009,05,29,03,53,11.30
2009,05,29,03,54,11.30
2009,05,29,03,55,11.30
2009,05,29,03,56,11.30
2009,05,29,03,57,11.30
2009,05,29,03,58,11.30
2009,05,29,03,59,11.30
2009,05,29,04,00,11.30
2009,05,29,04,01,11.30
2009,05,29,04,02,11.30
2009,05,29,04,03,11.30
2009,05,29,04,04,11.30
2009,05,29,04,05,11.30
2009,05,29,04,06,11.30
2009,05,29,04,07,11.30
2009,05,29,04,08,11.30
2009,05,29,04,09,11.40
2009,05,29,04,10,11.40
2009,05,29,04,11,11.40
2009,05,29,04,12,11.50
2009,05,29,04,13,11.60
2009,05,29,04,14,11.60
2009,05,29,04,15,11.60
2009,05,29,04,16,11.60
2009,05,29,04,17,11.70
2009,05,29,04,18,11.70
2009,05,29,04,19,11.80
2009,05,29,04,20,11.80
2009,05,29,04,21,11.80
2009,05,29,04,22,11.80
2009,05,29,04,23,11.80
2009,05,29,04,24,11.70
2009,05,29,04,25,11.70
2009,05,29,04,26,11.70
2009,05,29,04,27,11.60
2009,05,29,04,28,11.60
2009,05,29,04,29,11.60
2009,05,29,04,30,11.60
2009,05,29,04,31,11.60
2009,05,29,04,32,11.60
2009,05,29,04,33,11.60
2009,05,29,04,34,11.40
2009,05,29,04,35,11.40
2009,05,29,04,36,11.40
2009,05,29,04,37,11.40
2009,05,29,04,38,11.40
2009,05,29,04,39,11.40
2009,05,29,04,40,11.40
2009,05,29,04,41,11.40
2009,05,29,04,42,11.40
2009,05,29,04,43,11.40
2009,05,29,04,44,11.40
2009,05,29,04,45,11.40
2009,05,29,04,46,11.40
2009,05,29,04,47,11.40
2009,05,29,04,48,11.40
2009,05,29,04,49,11.30
2009,05,29,04,50,11.30
2009,05,29,04,51,11.20
2009,05,29,04,52,11.20
2009,05,29,04,53,11.20
2009,05,29,04,54,11.10
2009,05,29,04,55,11.10
2009,05,29,04,56,11.10
2009,05,29,04,57,11.10
2009,05,29,04,58,11.10
2009,05,29,04,59,11.00
2009,05,29,05,00,10.90
2009,05,29,05,01,10.90
2009,05,29,05,02,10.90
2009,05,29,05,03,10.90
2009,05,29,05,04,10.90
2009,05,29,05,05,10.90
2009,05,29,05,06,10.90
2009,05,29,05,07,10.90
2009,05,29,05,08,10.90
2009,05,29,05,09,10.90
2009,05,29,05,10,10.90
2009,05,29,05,11,10.90
2009,05,29,05,12,10.90
2009,05,29,05,13,10.80
2009,05,29,05,14,10.80
2009,05,29,05,15,10.80
2009,05,29,05,16,10.80
2009,05,29,05,17,10.80
2009,05,29,05,18,10.70
2009,05,29,05,19,10.70
2009,05,29,05,20,10.70
2009,05,29,05,21,10.70
2009,05,29,05,22,10.60
2009,05,29,05,23,10.60
2009,05,29,05,24,10.60
2009,05,29,05,25,10.70
2009,05,29,05,26,10.70
2009,05,29,05,27,10.70
2009,05,29,05,28,10.70
2009,05,29,05,29,10.80
2009,05,29,05,30,10.80
2009,05,29,05,31,10.80
2009,05,29,05,32,10.80
2009,05,29,05,33,10.80
2009,05,29,05,34,10.80
2009,05,29,05,35,10.80
2009,05,29,05,36,10.80
2009,05,29,05,37,10.80
2009,05,29,05,38,10.80
2009,05,29,05,39,10.80
2009,05,29,05,40,10.80
2009,05,29,05,41,10.80
2009,05,29,05,42,10.80
2009,05,29,05,43,10.80
2009,05,29,05,44,10.80
2009,05,29,05,45,10.80
2009,05,29,05,46,10.80
2009,05,29,05,47,10.80
2009,05,29,05,48,10.80
2009,05,29,05,49,10.80
2009,05,29,05,50,10.80
2009,05,29,05,51,10.80
2009,05,29,05,52,10.80
2009,05,29,05,54,10.70
2009,05,29,05,55,10.70
2009,05,29,05,56,10.70
2009,05,29,05,57,10.70
2009,05,29,05,58,10.70
2009,05,29,05,59,10.70
2009,05,29,06,00,10.70
2009,05,29,06,01,10.70
2009,05,29,06,02,10.70
2009,05,29,06,03,10.80
2009,05,29,06,04,10.80
2009,05,29,06,05,10.80
2009,05,29,06,06,10.90
2009,05,29,06,07,10.90
2009,05,29,06,08,10.90
2009,05,29,06,09,10.90
2009,05,29,06,10,11.00
2009,05,29,06,11,11.10
2009,05,29,06,12,11.10
2009,05,29,06,13,11.10
2009,05,29,06,14,11.10
2009,05,29,06,15,11.20
2009,05,29,06,16,11.20
2009,05,29,06,17,11.30
2009,05,29,06,18,11.30
2009,05,29,06,19,11.40
2009,05,29,06,20,11.40
2009,05,29,06,21,11.50
2009,05,29,06,22,11.60
2009,05,29,06,23,11.60
2009,05,29,06,24,11.60
2009,05,29,06,25,11.70
2009,05,29,06,26,11.70
2009,05,29,06,27,11.80
2009,05,29,06,28,11.80
2009,05,29,06,29,11.80
2009,05,29,06,30,11.90
2009,05,29,06,31,11.90
2009,05,29,06,32,12.00
2009,05,29,06,33,12.00
2009,05,29,06,34,12.10
2009,05,29,06,35,12.20
2009,05,29,06,36,12.20
2009,05,29,06,37,12.30
2009,05,29,06,38,12.30
2009,05,29,06,39,12.30
2009,05,29,06,40,12.40
2009,05,29,06,41,12.50
2009,05,29,06,42,12.50
2009,05,29,06,43,12.60
2009,05,29,06,44,12.70
2009,05,29,06,45,12.70
2009,05,29,06,46,12.80
2009,05,29,06,47,12.80
2009,05,29,06,48,12.90
2009,05,29,06,49,13.00
2009,05,29,06,50,13.00
2009,05,29,06,51,13.10
2009,05,29,06,52,13.20
2009,05,29,06,53,13.20
2009,05,29,06,54,13.30
2009,05,29,06,55,13.30
2009,05,29,06,56,13.40
2009,05,29,06,57,13.50
2009,05,29,06,58,13.50
2009,05,29,06,59,13.60
2009,05,29,07,00,13.70
2009,05,29,07,01,13.80
2009,05,29,07,02,14.00
2009,05,29,07,03,14.10
2009,05,29,07,04,14.20
2009,05,29,07,05,14.40
2009,05,29,07,06,14.50
2009,05,29,07,07,14.70
2009,05,29,07,08,14.80
2009,05,29,07,09,15.00
2009,05,29,07,10,15.20
2009,05,29,07,11,15.30
2009,05,29,07,12,15.50
2009,05,29,07,13,15.70
2009,05,29,07,14,15.90
2009,05,29,07,15,16.00
2009,05,29,07,16,16.10
2009,05,29,07,17,16.10
2009,05,29,07,18,16.10
2009,05,29,07,19,16.20
2009,05,29,07,20,16.20
2009,05,29,07,21,16.20
2009,05,29,07,22,16.30
2009,05,29,07,23,16.30
2009,05,29,07,24,16.30
2009,05,29,07,25,16.30
2009,05,29,07,26,16.30
2009,05,29,07,27,16.20
2009,05,29,07,28,16.20
2009,05,29,07,29,16.10
2009,05,29,07,30,16.10
2009,05,29,07,31,16.20
2009,05,29,07,32,16.20
2009,05,29,07,33,16.20
2009,05,29,07,34,16.20
2009,05,29,07,35,16.30
2009,05,29,07,36,16.30
2009,05,29,07,37,16.30
2009,05,29,07,38,16.40
2009,05,29,07,39,16.40
2009,05,29,07,40,16.50
2009,05,29,07,41,16.60
2009,05,29,07,42,16.70
2009,05,29,07,43,16.70
2009,05,29,07,44,16.80
2009,05,29,07,45,16.90
2009,05,29,07,46,17.00
2009,05,29,07,47,17.00
2009,05,29,07,48,17.10
2009,05,29,07,49,17.20
2009,05,29,07,50,17.30
2009,05,29,07,51,17.40
2009,05,29,07,52,17.50
2009,05,29,07,53,17.50
2009,05,29,07,54,17.60
2009,05,29,07,55,17.70
2009,05,29,07,56,17.80
2009,05,29,07,57,17.90
2009,05,29,07,58,17.90
2009,05,29,07,59,17.90
2009,05,29,08,00,17.90
2009,05,29,08,01,18.00
2009,05,29,08,02,18.10
2009,05,29,08,03,18.10
2009,05,29,08,04,18.20
2009,05,29,08,05,18.30
2009,05,29,08,06,18.40
2009,05,29,08,07,18.40
2009,05,29,08,08,18.50
2009,05,29,08,09,18.50
2009,05,29,08,10,18.50
2009,05,29,08,11,18.40
2009,05,29,08,12,18.20
2009,05,29,08,13,18.20
2009,05,29,08,14,18.20
2009,05,29,08,15,18.10
2009,05,29,08,16,18.00
2009,05,29,08,17,17.90
2009,05,29,08,18,17.90
2009,05,29,08,19,18.00
2009,05,29,08,20,18.10
2009,05,29,08,21,18.10
2009,05,29,08,22,18.20
2009,05,29,08,23,18.30
2009,05,29,08,28,18.70
2009,05,29,08,29,18.80
2009,05,29,08,30,18.80
2009,05,29,08,31,18.90
2009,05,29,08,32,18.90
2009,05,29,08,33,19.00
2009,05,29,08,34,19.10
2009,05,29,08,35,19.20
2009,05,29,08,36,19.30
2009,05,29,08,37,19.40
2009,05,29,08,38,19.50
2009,05,29,08,39,19.50
2009,05,29,08,40,19.60
2009,05,29,08,41,19.50
2009,05,29,08,42,19.40
2009,05,29,08,43,19.20
2009,05,29,08,44,19.10
2009,05,29,08,45,19.10
2009,05,29,08,46,19.10
2009,05,29,08,47,19.10
2009,05,29,08,48,19.10
2009,05,29,08,49,19.10
2009,05,29,08,50,19.20
2009,05,29,08,51,19.40
2009,05,29,08,52,19.50
2009,05,29,08,53,19.60
2009,05,29,08,54,19.70
2009,05,29,08,55,19.70
2009,05,29,08,56,19.80
2009,05,29,08,57,19.80
2009,05,29,08,58,19.80
2009,05,29,08,59,19.80
2009,05,29,09,00,19.80
2009,05,29,09,01,19.90
2009,05,29,09,02,20.00
2009,05,29,09,03,20.10
2009,05,29,09,04,20.00
2009,05,29,09,05,19.90
2009,05,29,09,06,19.70
2009,05,29,09,07,19.50
2009,05,29,09,08,19.40
2009,05,29,09,09,19.30
2009,05,29,09,10,19.20
2009,05,29,09,11,19.20
2009,05,29,09,12,19.10
2009,05,29,09,13,19.10
2009,05,29,09,14,19.10
2009,05,29,09,15,19.20
2009,05,29,09,16,19.30
2009,05,29,09,17,19.40
2009,05,29,09,18,19.60
2009,05,29,09,19,19.70
2009,05,29,09,20,19.70
2009,05,29,09,21,19.80
2009,05,29,09,22,19.80
2009,05,29,09,23,19.70
2009,05,29,09,24,19.60
2009,05,29,09,25,19.60
2009,05,29,09,26,19.60
2009,05,29,09,27,19.60
2009,05,29,09,28,19.70
2009,05,29,09,29,19.70
2009,05,29,09,30,19.80
2009,05,29,09,31,19.90
2009,05,29,09,32,20.00
2009,05,29,09,33,20.10
2009,05,29,09,34,20.20
2009,05,29,09,35,20.30
2009,05,29,09,36,20.30
2009,05,29,09,37,20.40
2009,05,29,09,38,20.40
2009,05,29,09,39,20.50
2009,05,29,09,40,20.50
2009,05,29,09,41,20.60
2009,05,29,09,42,20.60
2009,05,29,09,43,20.50
2009,05,29,09,44,20.50
2009,05,29,09,45,20.50
2009,05,29,09,46,20.50
2009,05,29,09,47,20.50
2009,05,29,09,48,20.50
2009,05,29,09,49,20.30
2009,05,29,09,50,20.20
2009,05,29,09,51,20.30
2009,05,29,09,52,20.40
2009,05,29,09,53,20.50
2009,05,29,09,54,20.60
2009,05,29,09,55,20.70
2009,05,29,09,56,20.70
2009,05,29,09,57,20.80
2009,05,29,09,58,20.80
2009,05,29,09,59,20.70
2009,05,29,10,00,20.50
2009,05,29,10,01,20.50
2009,05,29,10,02,20.50
2009,05,29,10,03,20.50
2009,05,29,10,04,20.60
2009,05,29,10,05,20.70
2009,05,29,10,06,20.70
2009,05,29,10,07,20.70
2009,05,29,10,08,20.60
2009,05,29,10,09,20.50
2009,05,29,10,10,20.50
2009,05,29,10,11,20.40
2009,05,29,10,12,20.40
2009,05,29,10,13,20.40
2009,05,29,10,14,20.50
2009,05,29,10,15,20.50
2009,05,29,10,16,20.60
2009,05,29,10,17,20.50
2009,05,29,10,18,20.60
2009,05,29,10,19,20.60
2009,05,29,10,20,20.70
2009,05,29,10,21,20.80
2009,05,29,10,22,20.90
2009,05,29,10,23,21.00
2009,05,29,10,24,21.00
2009,05,29,10,25,21.10
2009,05,29,10,26,21.30
2009,05,29,10,27,21.30
2009,05,29,10,28,21.30
2009,05,29,10,29,21.50
2009,05,29,10,30,21.60
2009,05,29,10,31,21.70
2009,05,29,10,32,21.70
2009,05,29,10,33,21.60
2009,05,29,10,34,21.60
2009,05,29,10,35,21.50
2009,05,29,10,36,21.30
2009,05,29,10,37,21.30
2009,05,29,10,38,21.40
2009,05,29,10,39,21.30
2009,05,29,10,40,21.20
2009,05,29,10,41,21.00
2009,05,29,10,42,21.00
2009,05,29,10,43,21.10
2009,05,29,10,44,21.10
2009,05,29,10,45,21.10
2009,05,29,10,46,21.00
2009,05,29,10,47,20.90
2009,05,29,10,48,20.80
2009,05,29,10,49,20.90
2009,05,29,10,50,20.90
2009,05,29,10,51,21.10
2009,05,29,10,52,21.20
2009,05,29,10,53,21.30
2009,05,29,10,54,21.30
2009,05,29,10,55,21.40
2009,05,29,10,56,21.40
2009,05,29,10,57,21.50
2009,05,29,10,58,21.60
2009,05,29,10,59,21.50
2009,05,29,11,00,21.40
2009,05,29,11,01,21.30
2009,05,29,11,02,21.20
2009,05,29,11,03,21.10
2009,05,29,11,04,21.10
2009,05,29,11,05,21.10
2009,05,29,11,06,21.10
2009,05,29,11,07,21.10
2009,05,29,11,08,21.10
2009,05,29,11,09,21.10
2009,05,29,11,10,21.00
2009,05,29,11,11,20.90
2009,05,29,11,12,20.80
2009,05,29,11,13,20.80
2009,05,29,11,14,20.80
2009,05,29,11,15,20.80
2009,05,29,11,16,20.90
2009,05,29,11,17,21.00
2009,05,29,11,18,21.10
2009,05,29,11,19,21.10
2009,05,29,11,20,21.10
2009,05,29,11,21,21.00
2009,05,29,11,22,21.00
2009,05,29,11,23,20.90
2009,05,29,11,24,20.90
2009,05,29,11,25,21.00
2009,05,29,11,26,21.00
2009,05,29,11,27,21.20
2009,05,29,11,28,21.30
2009,05,29,11,29,21.40
2009,05,29,11,30,21.50
2009,05,29,11,31,21.60
2009,05,29,11,32,21.60
2009,05,29,11,33,21.80
2009,05,29,11,34,21.90
2009,05,29,11,35,21.90
2009,05,29,11,36,21.90
2009,05,29,11,37,21.90
2009,05,29,11,38,21.80
2009,05,29,11,39,21.70
2009,05,29,11,40,21.70
2009,05,29,11,41,21.80
2009,05,29,11,42,21.90
2009,05,29,11,43,22.00
2009,05,29,11,44,22.10
2009,05,29,11,45,22.10
2009,05,29,11,46,22.00
2009,05,29,11,47,22.00
2009,05,29,11,48,22.10
2009,05,29,11,49,22.10
2009,05,29,11,50,22.10
2009,05,29,11,51,22.20
2009,05,29,11,52,22.20
2009,05,29,11,53,22.00
2009,05,29,11,54,21.60
2009,05,29,11,55,21.30
2009,05,29,11,56,21.10
2009,05,29,11,57,20.90
2009,05,29,11,58,20.80
2009,05,29,11,59,20.80
2009,05,29,12,00,21.00
2009,05,29,12,01,21.20
2009,05,29,12,02,21.30
2009,05,29,12,03,21.50
2009,05,29,12,04,21.60
2009,05,29,12,05,21.70
2009,05,29,12,06,21.80
2009,05,29,12,07,21.80
2009,05,29,12,08,21.70
2009,05,29,12,09,21.60
2009,05,29,12,10,21.40
2009,05,29,12,11,21.40
2009,05,29,12,12,21.40
2009,05,29,12,13,21.30
2009,05,29,12,14,21.30
2009,05,29,12,15,21.30
2009,05,29,12,16,21.30
2009,05,29,12,17,21.20
2009,05,29,12,18,21.10
2009,05,29,12,19,21.00
2009,05,29,12,20,21.00
2009,05,29,12,21,21.10
2009,05,29,12,22,21.10
2009,05,29,12,23,21.10
2009,05,29,12,24,21.30
2009,05,29,12,25,21.20
2009,05,29,12,26,21.10
2009,05,29,12,27,21.10
2009,05,29,12,28,21.10
2009,05,29,12,29,21.10
2009,05,29,12,30,21.10
2009,05,29,12,31,21.10
2009,05,29,12,32,21.30
2009,05,29,12,33,21.30
2009,05,29,12,34,21.50
2009,05,29,12,35,21.70
2009,05,29,12,36,21.90
2009,05,29,12,37,22.30
2009,05,29,12,38,22.70
2009,05,29,12,39,23.10
2009,05,29,12,40,23.30
2009,05,29,12,41,23.50
2009,05,29,12,42,23.70
2009,05,29,12,43,23.90
2009,05,29,12,44,24.20
2009,05,29,12,45,24.50
2009,05,29,12,46,24.50
2009,05,29,12,47,24.30
2009,05,29,12,48,23.90
2009,05,29,12,49,23.50
2009,05,29,12,50,23.20
2009,05,29,12,51,22.90
2009,05,29,12,52,22.70
2009,05,29,12,53,22.60
2009,05,29,12,54,22.50
2009,05,29,12,55,22.30
2009,05,29,12,56,22.30
2009,05,29,12,57,22.40
2009,05,29,12,58,22.40
2009,05,29,12,59,22.50
2009,05,29,13,00,22.60
2009,05,29,13,01,22.60
2009,05,29,13,02,22.60
2009,05,29,13,03,22.40
2009,05,29,13,04,22.20
2009,05,29,13,05,22.00
2009,05,29,13,06,21.80
2009,05,29,13,07,21.60
2009,05,29,13,08,21.60
2009,05,29,13,09,21.60
2009,05,29,13,10,21.60
2009,05,29,13,11,21.50
2009,05,29,13,12,21.30
2009,05,29,13,13,21.30
2009,05,29,13,14,21.40
2009,05,29,13,15,21.40
2009,05,29,13,16,21.40
2009,05,29,13,17,21.40
2009,05,29,13,18,21.30
2009,05,29,13,19,21.30
2009,05,29,13,20,21.30
2009,05,29,13,21,21.20
2009,05,29,13,22,20.90
2009,05,29,13,23,20.70
2009,05,29,13,24,20.70
2009,05,29,13,25,20.90
2009,05,29,13,26,21.00
2009,05,29,13,27,21.10
2009,05,29,13,28,21.20
2009,05,29,13,29,21.30
2009,05,29,13,30,21.50
2009,05,29,13,31,21.60
2009,05,29,13,32,21.80
2009,05,29,13,33,22.00
2009,05,29,13,34,22.00
2009,05,29,13,35,22.10
2009,05,29,13,36,22.20
2009,05,29,13,37,22.30
2009,05,29,13,38,22.40
2009,05,29,13,39,22.70
2009,05,29,13,40,23.00
2009,05,29,13,41,23.10
2009,05,29,13,42,23.20
2009,05,29,13,43,23.30
2009,05,29,13,44,23.60
2009,05,29,13,45,23.70
2009,05,29,13,46,23.70
2009,05,29,13,47,23.70
2009,05,29,13,48,23.70
2009,05,29,13,49,23.70
2009,05,29,13,50,23.70
2009,05,29,13,51,23.70
2009,05,29,13,52,23.60
2009,05,29,13,53,23.60
2009,05,29,13,54,23.60
2009,05,29,13,55,23.60
2009,05,29,13,56,23.70
2009,05,29,13,57,23.70
2009,05,29,13,58,23.60
2009,05,29,13,59,23.60
2009,05,29,14,00,23.60
2009,05,29,14,01,23.60
2009,05,29,14,02,23.70
2009,05,29,14,03,23.70
2009,05,29,14,04,23.80
2009,05,29,14,05,23.90
2009,05,29,14,06,24.00
2009,05,29,14,07,24.20
2009,05,29,14,08,24.30
2009,05,29,14,09,24.50
2009,05,29,14,10,24.60
2009,05,29,14,11,24.80
2009,05,29,14,12,24.90
2009,05,29,14,13,25.10
2009,05,29,14,14,25.30
2009,05,29,14,15,25.50
2009,05,29,14,16,25.70
2009,05,29,14,17,25.90
2009,05,29,14,18,26.10
2009,05,29,14,19,26.30
2009,05,29,14,20,26.40
2009,05,29,14,21,26.50
2009,05,29,14,22,26.60
2009,05,29,14,23,26.70
2009,05,29,14,24,26.80
2009,05,29,14,25,26.80
2009,05,29,14,26,26.80
2009,05,29,14,27,26.80
2009,05,29,14,28,26.90
2009,05,29,14,29,27.00
2009,05,29,14,30,27.20
2009,05,29,14,31,27.20
2009,05,29,14,32,27.20
2009,05,29,14,33,27.20
2009,05,29,14,34,27.20
2009,05,29,14,35,27.00
2009,05,29,14,36,26.90
2009,05,29,14,37,26.80
2009,05,29,14,38,26.80
2009,05,29,14,39,26.70
2009,05,29,14,40,26.70
2009,05,29,14,41,26.80
2009,05,29,14,42,26.80
2009,05,29,14,43,27.00
2009,05,29,14,44,27.10
2009,05,29,14,45,27.20
2009,05,29,14,46,27.30
2009,05,29,14,47,27.10
2009,05,29,14,48,26.70
2009,05,29,14,49,25.80
2009,05,29,14,50,25.10
2009,05,29,14,51,24.60
2009,05,29,14,52,24.10
2009,05,29,14,53,23.80
2009,05,29,14,54,23.70
2009,05,29,14,55,23.70
2009,05,29,14,56,23.80
2009,05,29,14,57,24.20
2009,05,29,14,58,24.60
2009,05,29,14,59,25.00
2009,05,29,15,00,25.40
2009,05,29,15,01,25.80
2009,05,29,15,02,26.00
2009,05,29,15,03,26.20
2009,05,29,15,04,26.40
2009,05,29,15,05,26.50
2009,05,29,15,06,26.70
2009,05,29,15,07,26.60
2009,05,29,15,08,26.50
2009,05,29,15,09,26.40
2009,05,29,15,10,26.30
2009,05,29,15,11,26.10
2009,05,29,15,12,26.10
2009,05,29,15,13,26.10
2009,05,29,15,14,26.00
2009,05,29,15,15,26.00
2009,05,29,15,16,26.00
2009,05,29,15,17,26.10
2009,05,29,15,18,26.10
2009,05,29,15,19,26.10
2009,05,29,15,20,26.20
2009,05,29,15,21,26.20
2009,05,29,15,22,26.20
2009,05,29,15,23,26.10
2009,05,29,15,24,26.00
2009,05,29,15,25,25.90
2009,05,29,15,26,25.90
2009,05,29,15,27,25.80
2009,05,29,15,28,25.80
2009,05,29,15,29,25.80
2009,05,29,15,30,25.80
2009,05,29,15,31,25.90
2009,05,29,15,32,25.90
2009,05,29,15,33,25.90
2009,05,29,15,34,25.90
2009,05,29,15,35,25.80
2009,05,29,15,36,25.80
2009,05,29,15,37,25.80
2009,05,29,15,38,25.80
2009,05,29,15,39,25.80
2009,05,29,15,40,25.80
2009,05,29,15,41,25.80
2009,05,29,15,42,25.80
2009,05,29,15,43,25.70
2009,05,29,15,44,25.70
2009,05,29,15,45,25.60
2009,05,29,15,46,25.60
2009,05,29,15,47,25.60
2009,05,29,15,48,25.70
2009,05,29,15,49,25.70
2009,05,29,15,50,25.80
2009,05,29,15,51,25.80
2009,05,29,15,52,25.80
2009,05,29,15,53,25.70
2009,05,29,15,54,25.70
2009,05,29,15,55,25.70
2009,05,29,15,56,25.70
2009,05,29,15,57,25.70
2009,05,29,15,58,25.70
2009,05,29,15,59,25.80
2009,05,29,16,00,25.80
2009,05,29,16,01,25.90
2009,05,29,16,02,25.90
2009,05,29,16,03,25.90
2009,05,29,16,04,26.00
2009,05,29,16,05,25.90
2009,05,29,16,06,25.80
2009,05,29,16,07,25.80
2009,05,29,16,08,25.80
2009,05,29,16,09,25.80
2009,05,29,16,10,25.80
2009,05,29,16,11,25.80
2009,05,29,16,12,25.70
2009,05,29,16,13,25.70
2009,05,29,16,14,25.70
2009,05,29,16,15,25.70
2009,05,29,16,16,25.70
2009,05,29,16,17,25.70
2009,05,29,16,18,25.60
2009,05,29,16,19,25.60
2009,05,29,16,20,25.50
2009,05,29,16,21,25.40
2009,05,29,16,22,25.40
2009,05,29,16,23,25.40
2009,05,29,16,24,25.50
2009,05,29,16,25,25.50
2009,05,29,16,26,25.50
2009,05,29,16,27,25.50
2009,05,29,16,28,25.50
2009,05,29,16,29,25.60
2009,05,29,16,30,25.60
2009,05,29,16,31,25.70
2009,05,29,16,32,25.70
2009,05,29,16,33,25.70
2009,05,29,16,34,25.60
2009,05,29,16,35,25.50
2009,05,29,16,36,25.50
2009,05,29,16,37,25.50
2009,05,29,16,38,25.50
2009,05,29,16,39,25.50
2009,05,29,16,40,25.50
2009,05,29,16,41,25.50
2009,05,29,16,42,25.50
2009,05,29,16,43,25.60
2009,05,29,16,44,25.60
2009,05,29,16,45,25.60
2009,05,29,16,46,25.60
2009,05,29,16,47,25.60
2009,05,29,16,48,25.60
2009,05,29,16,49,25.60
2009,05,29,16,50,25.60
2009,05,29,16,51,25.50
2009,05,29,16,52,25.40
2009,05,29,16,53,25.30
2009,05,29,16,54,25.30
2009,05,29,16,55,25.20
2009,05,29,16,56,25.20
2009,05,29,16,57,25.30
2009,05,29,16,58,25.40
2009,05,29,16,59,25.40
2009,05,29,17,00,25.50
2009,05,29,17,01,25.40
2009,05,29,17,02,25.30
2009,05,29,17,03,25.30
2009,05,29,17,04,25.30
2009,05,29,17,05,25.30
2009,05,29,17,06,25.30
2009,05,29,17,07,25.30
2009,05,29,17,08,25.30
2009,05,29,17,09,25.30
2009,05,29,17,10,25.30
2009,05,29,17,11,25.30
2009,05,29,17,12,25.30
2009,05,29,17,13,25.30
2009,05,29,17,14,25.30
2009,05,29,17,15,25.30
2009,05,29,17,16,25.30
2009,05,29,17,17,25.30
2009,05,29,17,18,25.30
2009,05,29,17,19,25.30
2009,05,29,17,20,25.30
2009,05,29,17,21,25.30
2009,05,29,17,22,25.20
2009,05,29,17,23,25.10
2009,05,29,17,24,25.00